Roatan, Honduras

5:55 PM CST on August 28, 2016 (GMT -0600)
Roatan

Weather History for 78703 - September, 2013

Change the Weather History Date:

Wednesday, September 25, 2013

  Actual Average Record
Temperature  
Mean Temperature 85 °F -  
Max Temperature 90 °F 85 °F - ()
Min Temperature 80 °F 76 °F - ()
Cooling Degree Days 20    
Growing Degree Days 35 (Base 50)    
Moisture  
Dew Point 77 °F    
Average Humidity 70    
Maximum Humidity 79    
Minimum Humidity 59    
Precipitation  
Precipitation 0.00 in - - ()
Sea Level Pressure  
Sea Level Pressure 29.81 in    
Wind  
Wind Speed 13 mph ()    
Max Wind Speed 20 mph    
Max Gust Speed -    
Visibility 6.6 miles    
Events      
T = Trace of Precipitation, MM = Missing Value Source: Averaged Metar Reports

Daily Weather History Graph

Daily Weather History Graph

Search for Another Location

Airport or City:

Trip Planner

Search our weather history database for the weather conditions in past years. The results will help you decide how hot, cold, wet, or windy it might be!

Date:

Astronomy

Sep. 25, 2013 Rise Set
Actual Time 5:35 AM CST 5:39 PM CST
Civil Twilight 5:13 AM CST 6:01 PM CST
Nautical Twilight 4:48 AM CST 6:26 PM CST
Astronomical Twilight 4:23 AM CST 6:51 PM CST
Moon 10:30 PM CST (9/25) 10:55 AM CST (9/25)
Length of Visible Light 12h 47m
Length of Day
12h 04m
Waning Gibbous, 63% of the Moon is Illuminated
Sep 25
Waning Gibbous
Sep 26
Last Quarter
Oct 4
New
Oct 11
First Quarter
Oct 18
Full

Hourly Weather History & Observations

Time (CST) Temp. Heat Index Dew Point Humidity Pressure Visibility Wind Dir Wind Speed Gust Speed Precip Events Conditions
6:00 AM 84 °F - 76 °F 72% 29.81 in 9 mi East 18.4 mph - -   Haze
6:00 AM 84.2 °F 94.1 °F 77.0 °F 79% 29.80 in 6.2 mi East 18.4 mph - N/A   Mostly Cloudy
7:00 AM 86.0 °F 96.9 °F 77.0 °F 74% 29.83 in 6.2 mi East 16.1 mph - N/A   Mostly Cloudy
8:00 AM 87.8 °F 99.7 °F 77.0 °F 70% 29.83 in 6.2 mi East 12.7 mph - N/A   Mostly Cloudy
9:00 AM 88 °F - 78 °F 64% 29.86 in 9 mi East 11.5 mph - -   Haze
9:00 AM 87.8 °F 99.7 °F 77.0 °F 70% 29.86 in 6.2 mi East 11.5 mph - N/A   Scattered Clouds
10:00 AM 87.8 °F 99.7 °F 77.0 °F 70% 29.86 in 6.2 mi ESE 13.8 mph - N/A   Scattered Clouds
11:00 AM 89.6 °F 102.2 °F 77.0 °F 66% 29.86 in 6.2 mi East 11.5 mph - N/A   Partly Cloudy
12:00 PM 90 °F - 78 °F 59% 29.85 in 7 mi East 11.5 mph - -   Haze
12:00 PM 89.6 °F 102.2 °F 77.0 °F 66% 29.83 in 6.2 mi East 11.5 mph - N/A   Partly Cloudy
1:00 PM 89.6 °F 102.2 °F 77.0 °F 66% 29.80 in 6.2 mi East 11.5 mph - N/A   Partly Cloudy
2:00 PM 89.6 °F 104.7 °F 78.8 °F 70% 29.77 in 6.2 mi East 15.0 mph - N/A   Scattered Clouds
3:00 PM 89 °F - 77 °F 61% 29.78 in 7 mi East 13.8 mph - -   Haze
3:00 PM 89.6 °F 102.2 °F 77.0 °F 66% 29.77 in 6.2 mi East 13.8 mph - N/A   Scattered Clouds
5:00 PM 87.8 °F 102.5 °F 78.8 °F 75% 29.74 in 6.2 mi East 15.0 mph - N/A   Scattered Clouds
6:00 PM 85 °F - 78 °F 73% 29.78 in 7 mi East 17.3 mph - -   Haze
6:00 PM 86.0 °F 96.9 °F 77.0 °F 74% 29.77 in 6.2 mi East 17.3 mph - N/A   Mostly Cloudy
7:00 PM 84.2 °F 94.1 °F 77.0 °F 79% 29.80 in 6.2 mi East 18.4 mph - N/A   Mostly Cloudy
8:00 PM 84.2 °F 94.1 °F 77.0 °F 79% 29.83 in 6.2 mi East 19.6 mph - N/A   Scattered Clouds